When you browse on this site, cookies collect data to enhance your experience and personalize the content and advertising you see.
Visit our Privacy Policy to learn more. By continuing to use the site, you agree to this use of cookies and data.
  • In Switzerland
  • List of Countries
  • For 7 days
  • Water Temperature
  • Satellite Maps
  • Weather Map
  • Weather Widgets
  • user-avatar
    Login

    Hourly Weather Tokmak

    Today, 22 January, Tuesday

    Time Temperature Precipitation Wind Pressure Humidity
    00:00 -24°C° 0 mm 2 mps 473 mmHg 75%
    01:00 -24°C° 0 mm 2 mps 473 mmHg 69%
    02:00 -24°C° 0 mm 2 mps 473 mmHg 62%
    03:00 -24°C° 0 mm 2 mps 473 mmHg 61%
    04:00 -24°C° 0 mm 2 mps 472 mmHg 59%
    05:00 -20°C° 0 mm 1 mps 472 mmHg 59%
    06:00 -20°C° 0 mm 1 mps 472 mmHg 60%
    07:00 -19°C° 0 mm 1 mps 472 mmHg 60%
    08:00 -21°C° 0 mm 2 mps 472 mmHg 61%
    09:00 -18°C° 0 mm 1 mps 473 mmHg 62%
    10:00 -17°C° 0 mm 1 mps 473 mmHg 63%
    11:00 -15°C° 0 mm 1 mps 474 mmHg 65%
    12:00 -15°C° 0.1 mm 1 mps 474 mmHg 67%
    13:00 -15°C° 0.1 mm 1 mps 473 mmHg 70%
    14:00 -15°C° 0.1 mm 1 mps 473 mmHg 72%
    15:00 -16°C° 0 mm 1 mps 472 mmHg 75%
    16:00 -17°C° 0 mm 1 mps 472 mmHg 78%
    17:00 -18°C° 0 mm 1 mps 471 mmHg 80%
    18:00 -18°C° 0 mm 1 mps 471 mmHg 76%
    19:00 -18°C° 0 mm 1 mps 471 mmHg 72%
    20:00 -21°C° 0 mm 2 mps 472 mmHg 67%
    21:00 -20°C° 0 mm 2 mps 472 mmHg 64%
    22:00 -20°C° 0 mm 2 mps 472 mmHg 60%
    23:00 -20°C° 0 mm 2 mps 472 mmHg 56%

    Tomorrow, 23 January, Wednesday

    Time Temperature Precipitation Wind Pressure Humidity
    00:00 -20°C° 0 mm 2 mps 472 mmHg 56%
    01:00 -21°C° 0 mm 2 mps 472 mmHg 56%
    02:00 -21°C° 0 mm 2 mps 472 mmHg 56%
    03:00 -21°C° 0 mm 2 mps 472 mmHg 56%
    04:00 -23°C° 0 mm 2 mps 471 mmHg 56%
    05:00 -23°C° 0 mm 2 mps 471 mmHg 56%
    06:00 -23°C° 0 mm 2 mps 471 mmHg 55%
    07:00 -23°C° 0 mm 2 mps 472 mmHg 55%
    08:00 -23°C° 0 mm 2 mps 472 mmHg 54%
    09:00 -21°C° 0 mm 2 mps 473 mmHg 56%
    10:00 -17°C° 0 mm 1 mps 474 mmHg 58%
    11:00 -16°C° 0 mm 1 mps 475 mmHg 59%
    12:00 -15°C° 0 mm 1 mps 475 mmHg 62%
    13:00 -15°C° 0 mm 1 mps 475 mmHg 64%
    14:00 -15°C° 0 mm 1 mps 475 mmHg 66%
    15:00 -17°C° 0 mm 1 mps 474 mmHg 69%
    16:00 -18°C° 0 mm 1 mps 473 mmHg 71%
    17:00 -23°C° 0 mm 2 mps 472 mmHg 74%
    18:00 -23°C° 0 mm 2 mps 472 mmHg 69%
    19:00 -23°C° 0 mm 2 mps 472 mmHg 64%
    20:00 -23°C° 0 mm 2 mps 473 mmHg 59%
    21:00 -23°C° 0 mm 2 mps 473 mmHg 56%
    22:00 -23°C° 0 mm 2 mps 473 mmHg 54%
    23:00 -24°C° 0 mm 3 mps 473 mmHg 52%

    Day after tomorrow, 24 January, Thursday

    Time Temperature Precipitation Wind Pressure Humidity
    00:00 -23°C° 0 mm 2 mps 473 mmHg 52%
    01:00 -23°C° 0 mm 2 mps 473 mmHg 52%
    02:00 -23°C° 0 mm 2 mps 473 mmHg 52%
    03:00 -23°C° 0 mm 2 mps 473 mmHg 53%
    04:00 -23°C° 0 mm 2 mps 474 mmHg 53%
    05:00 -23°C° 0 mm 2 mps 474 mmHg 54%
    06:00 -24°C° 0 mm 2 mps 474 mmHg 55%
    07:00 -24°C° 0 mm 2 mps 474 mmHg 55%
    08:00 -24°C° 0 mm 2 mps 475 mmHg 56%
    09:00 -21°C° 0 mm 2 mps 476 mmHg 57%
    10:00 -20°C° 0 mm 2 mps 477 mmHg 59%
    11:00 -17°C° 0 mm 1 mps 478 mmHg 60%
    12:00 -17°C° 0 mm 1 mps 478 mmHg 62%
    13:00 -17°C° 0 mm 1 mps 477 mmHg 63%
    14:00 -17°C° 0 mm 1 mps 477 mmHg 65%
    15:00 -18°C° 0 mm 1 mps 477 mmHg 68%
    16:00 -19°C° 0 mm 1 mps 476 mmHg 70%
    17:00 -20°C° 0 mm 1 mps 476 mmHg 73%
    18:00 -23°C° 0.1 mm 2 mps 476 mmHg 72%
    19:00 -23°C° 0.1 mm 2 mps 477 mmHg 71%
    20:00 -23°C° 0.1 mm 2 mps 477 mmHg 70%
    21:00 -23°C° 0 mm 2 mps 477 mmHg 68%
    22:00 -24°C° 0 mm 3 mps 477 mmHg 66%
    23:00 -24°C° 0 mm 3 mps 477 mmHg 64%

    25 January, Friday

    Time Temperature Precipitation Wind Pressure Humidity
    00:00 -25°C° 0 mm 3 mps 477 mmHg 63%
    01:00 -25°C° 0 mm 3 mps 477 mmHg 62%
    02:00 -26°C° 0 mm 3 mps 477 mmHg 61%
    03:00 -26°C° 0 mm 3 mps 477 mmHg 60%
    04:00 -26°C° 0 mm 3 mps 477 mmHg 59%
    05:00 -26°C° 0 mm 3 mps 476 mmHg 58%
    06:00 -26°C° 0 mm 3 mps 477 mmHg 56%
    07:00 -26°C° 0 mm 3 mps 477 mmHg 55%
    08:00 -26°C° 0 mm 3 mps 477 mmHg 54%
    09:00 -23°C° 0 mm 2 mps 478 mmHg 54%
    10:00 -20°C° 0 mm 2 mps 479 mmHg 54%
    11:00 -18°C° 0 mm 2 mps 480 mmHg 53%
    12:00 -18°C° 0 mm 2 mps 480 mmHg 54%
    13:00 -17°C° 0 mm 2 mps 480 mmHg 55%
    14:00 -15°C° 0 mm 1 mps 479 mmHg 55%
    15:00 -18°C° 0 mm 2 mps 478 mmHg 57%
    16:00 -20°C° 0 mm 2 mps 477 mmHg 58%
    17:00 -21°C° 0 mm 2 mps 476 mmHg 59%
    18:00 -23°C° 0 mm 3 mps 476 mmHg 56%
    19:00 -24°C° 0 mm 3 mps 476 mmHg 52%
    20:00 -24°C° 0 mm 3 mps 476 mmHg 48%
    21:00 -24°C° 0 mm 3 mps 476 mmHg 45%
    22:00 -24°C° 0 mm 3 mps 477 mmHg 42%
    23:00 -23°C° 0 mm 3 mps 477 mmHg 39%

    26 January, Saturday

    Time Temperature Precipitation Wind Pressure Humidity
    00:00 -23°C° 0 mm 3 mps 477 mmHg 38%
    01:00 -23°C° 0 mm 3 mps 477 mmHg 36%
    02:00 -23°C° 0 mm 3 mps 476 mmHg 35%
    03:00 -23°C° 0 mm 3 mps 476 mmHg 35%
    04:00 -23°C° 0 mm 3 mps 476 mmHg 34%
    05:00 -23°C° 0 mm 3 mps 476 mmHg 34%
    06:00 -23°C° 0 mm 3 mps 476 mmHg 34%
    07:00 -23°C° 0 mm 3 mps 476 mmHg 35%
    08:00 -23°C° 0 mm 3 mps 477 mmHg 36%
    09:00 -20°C° 0 mm 2 mps 477 mmHg 37%
    10:00 -18°C° 0 mm 2 mps 478 mmHg 39%
    11:00 -16°C° 0 mm 2 mps 479 mmHg 41%
    12:00 -14°C° 0 mm 1 mps 479 mmHg 42%
    13:00 -14°C° 0 mm 1 mps 479 mmHg 43%
    14:00 -14°C° 0 mm 1 mps 478 mmHg 45%
    15:00 -18°C° 0 mm 2 mps 477 mmHg 47%
    16:00 -19°C° 0 mm 2 mps 476 mmHg 49%
    17:00 -23°C° 0 mm 3 mps 475 mmHg 51%
    18:00 -23°C° 0 mm 3 mps 475 mmHg 47%
    19:00 -24°C° 0 mm 3 mps 475 mmHg 43%
    20:00 -25°C° 0 mm 4 mps 475 mmHg 40%
    21:00 -25°C° 0 mm 4 mps 475 mmHg 36%
    22:00 -25°C° 0 mm 4 mps 475 mmHg 33%
    23:00 -25°C° 0 mm 4 mps 475 mmHg 30%

    27 January, Sunday

    Time Temperature Precipitation Wind Pressure Humidity
    00:00 -25°C° 0 mm 4 mps 475 mmHg 29%
    01:00 -25°C° 0 mm 4 mps 475 mmHg 28%
    02:00 -25°C° 0 mm 4 mps 475 mmHg 27%
    03:00 -25°C° 0 mm 4 mps 475 mmHg 27%
    04:00 -25°C° 0 mm 4 mps 475 mmHg 27%
    05:00 -25°C° 0 mm 4 mps 475 mmHg 27%
    06:00 -25°C° 0 mm 4 mps 476 mmHg 28%
    07:00 -25°C° 0 mm 4 mps 476 mmHg 29%
    08:00 -25°C° 0 mm 4 mps 476 mmHg 29%
    09:00 -22°C° 0 mm 3 mps 477 mmHg 34%
    10:00 -19°C° 0 mm 3 mps 478 mmHg 38%
    11:00 -16°C° 0 mm 2 mps 479 mmHg 43%
    12:00 -16°C° 0 mm 2 mps 479 mmHg 43%
    13:00 -15°C° 0 mm 2 mps 479 mmHg 43%
    14:00 -15°C° 0 mm 2 mps 479 mmHg 44%
    15:00 -17°C° 0 mm 2 mps 477 mmHg 45%
    16:00 -19°C° 0 mm 2 mps 476 mmHg 46%
    17:00 -22°C° 0 mm 3 mps 475 mmHg 48%
    18:00 -23°C° 0 mm 3 mps 475 mmHg 44%
    19:00 -24°C° 0 mm 4 mps 475 mmHg 41%
    20:00 -25°C° 0 mm 4 mps 475 mmHg 38%
    21:00 -25°C° 0 mm 4 mps 475 mmHg 35%
    22:00 -25°C° 0 mm 4 mps 475 mmHg 32%
    23:00 -26°C° 0 mm 5 mps 475 mmHg 30%
    Show more